TIMESTAMP,CO2_1_1_1,H2O_1_1_1,TAU_1_1_1,TAU_SSITC_TEST_1_1_1,H_1_1_1,H_SSITC_TEST_1_1_1,LE_1_1_1,LE_SSITC_TEST_1_1_1,FC_1_1_1,FC_SSITC_TEST_1_1_1,WD_0_0_1,WS_0_0_1,WS_MAX_0_0_1,U_SIGMA_0_0_1,V_SIGMA_0_0_1,W_SIGMA_0_0_1,USTAR_0_0_1,MO_LENGTH_0_0_1,ZL_0_0_1,FETCH_MAX_0_0_1,FETCH_70_0_0_1,FETCH_80_0_0_1,FETCH_90_0_0_1,PA_0_0_1,RH_0_0_1,TA_0_0_1,VPD_0_0_1,T_SONIC_0_0_1,T_SONIC_SIGMA_0_0_1
[yyyymmddHHMMSS],[mmolCO2 mol-1],[mmolH2O mol-1],[kg m-1 s-2],[#],[W m-2],[#],[W m-2],[#],[umolCO2 m-2 s-1],[#],[Decimal degrees],[m s-1],[m s-1],[m s-1],[m s-1],[m s-1],[m s-1],[m],[#],[m],[m],[m],[m],[kPa],[%],[deg C],[hPa],[deg C],[deg C]
20190724003000,396.45932372542637,14.729119337765244,8.27461499421773550E-003,0,-2.1513774684496969,0,8.9958757822216668,0,-0.73245329626722577,0,337.31923499199684,1.5119279460182862,2.8288091379066320,0.29293716063016334,0.21222488236163423,0.12934764307169741,8.63277221180133447E-002,25.043694517060565,0.75867400423114861,383.41623114959447,4007.0000000000000,7615.0000000000000,-9999.,94.331972057091946,55.413793103448278,21.186206896551710,11.182394820723067,21.972446306734696,8.20426454072980121E-002
20190724010000,397.08576715210131,14.485187885912037,2.04388727044972802E-003,1,0.76278561689171265,2,7.9716466345720782,1,-0.45431395878701775,1,346.18099782179110,1.1013468935889756,2.3780037914738541,0.38981547947161072,0.19334356573022593,8.78978843194998249E-002,4.28674089589859281E-002,-8.6493230948622877,-2.1967036947996581,225.22427761467776,647.00000000000000,871.00000000000000,1378.0000000000000,94.350573559461807,55.953333333333333,20.759999999999991,10.761485883542354,21.641888515896312,0.14027314970412805
20190724013000,398.86638589890413,13.749273714324650,2.87488654854037165E-003,1,1.0826588281281362,1,-1.8387528589242603,1,3.83334801799137051E-002,1,3.1685399338119282,0.58623789514030655,1.2744779033387845,0.18066869097577687,0.12244487992767793,4.82328778212245401E-002,5.08256831467987433E-002,-10.156884418755832,-1.8706523788844500,93.566042532447838,279.00000000000000,379.00000000000000,608.00000000000000,94.367109312065978,53.240000000000002,20.723333333333358,11.398648053956279,21.560220091925771,6.50938133372315902E-002
20190724020000,399.25742755916644,13.445801991167674,7.18677437609786872E-004,1,0.84081828870956010,1,0.52276268757460709,2,-2.16508622126123235E-002,2,12.791407541029741,0.46915971536313417,0.89126399505395826,0.23539893370893042,9.02122274525933993E-002,2.60579990213499688E-002,2.54080772104046289E-002,-1.6338365988065893,-11.629069892226834,73.823023113874470,208.00000000000000,279.00000000000000,438.00000000000000,94.371892107646801,52.206666666666663,20.680000000000007,11.619493827141865,21.401236804404107,0.15993256993160415
20190724023000,399.87866808919523,12.990853354173076,6.06638916751313373E-004,1,9.26908936380485549E-002,2,-0.39158431377766156,1,2.25994420427619892E-002,2,233.90141358944913,0.29601039269179202,0.47943670646554326,0.13033154238849748,0.12363166978125970,1.30786573047772681E-002,2.33382812097695340E-002,-11.486659878922962,-1.6540926779649299,110.44837807159541,329.00000000000000,447.00000000000000,717.00000000000000,94.390933285590279,50.533333333333331,20.653333333333364,12.006575037221996,21.464491284688336,3.77373083849265392E-002
20190724030000,399.94087574789182,12.869011293955939,2.05859262557699617E-003,2,-0.43548368933435311,1,-0.74029200769573111,1,4.90066523763485751E-002,1,217.05749664669290,1.2831490930408600,2.2123170464212194,0.44368478677095036,0.13399850671307820,5.06179264289007974E-002,4.29769234308476494E-002,15.269308137094818,1.2443261888102151,1008.5262418073901,-9999.,-9999.,-9999.,94.412638173177086,50.463333333333331,20.526666666666642,11.930060327267679,21.216266254001198,0.19349346894749270
20190724033000,398.94099154511383,14.387374659643298,1.09363294213661710E-002,0,-10.180883102729613,0,15.904518268611650,0,0.81370086605743264,0,205.78636530880644,1.7585049974054558,2.5733409243650898,0.33248329214682504,0.17661122199022194,0.18913481987979502,9.88846342998782324E-002,7.9578313585184635,2.3875851527893266,445.62208522499498,3880.0000000000000,6998.0000000000000,-9999.,94.415107546020735,60.710000000000001,19.343333333333305,8.7934909414416822,20.322442988117928,0.47413579974885117
20190724040000,398.29709230126969,15.030554999166705,1.69459251261948711E-002,0,-3.2651787491056319,1,-12.231078426828550,2,9.87285688232637099E-002,2,207.12857334229855,2.1313173493376345,3.2988111219018572,0.31250320640041024,0.28319986993968266,0.19687941697923647,0.12314463366783654,47.922872454826631,0.39647039141716522,327.29505812555158,3392.0000000000000,6430.0000000000000,-9999.,94.402992859090219,62.839999999999996,19.490000000000009,8.3929915965455191,20.518903324545249,0.44748105995125786
20190724043000,402.44097695351894,16.129575264586098,9.79013397536133007E-002,1,-12.865908490723012,1,18.207324425421632,1,2.1765973176426594,1,220.45307963971186,2.1608714960620845,3.9191630941152402,0.53733512082530321,0.33377099567480167,0.37668374193355170,0.29574128886582279,168.47694981460708,0.11277507113529596,103.18176867523462,188.64918127559793,225.76488831369724,282.63084993251829,94.392387856119797,70.200000000000003,18.843333333333305,6.4648065718357772,19.930606257120814,0.65378691159134095
20190724050000,411.55732218593624,17.230645801487235,6.15849735998263495E-002,0,-30.647524947436303,0,16.671783816409132,1,1.6659124929077203,1,222.60012501440946,2.3497803109820969,3.7513734923883222,0.47092818188939561,0.37398403521638007,0.29114913193799230,0.23434672126018685,35.198994759161721,0.53978814253082075,105.25666499341975,192.44275349947981,230.30482537381860,288.31431240326066,94.400258245876742,78.016666666666666,18.213333333333310,4.5845569408989313,19.418243343777249,0.56069031539381675
20190724053000,419.27548036161608,17.925668004776362,5.40745758878247509E-002,0,-35.633776160829747,0,54.837193278751563,0,11.224625347005100,0,217.77069866934443,2.6070039884645606,4.4026947502180080,0.50489878309542102,0.36126542214382973,0.25737907957470407,0.21942951472325956,24.857076574555109,0.76436985431542293,110.21287694983894,201.50428965854377,241.14916980759023,301.89014479761926,94.408932561517261,83.676666666666662,17.730000000000018,3.3022457753001184,18.997909984043872,0.37457267882189105
20190724060000,416.98689263814276,17.122374030988087,4.15770055615766812E-002,0,-23.195937299019370,0,11.297527765857707,0,4.6314083199480685,0,219.69744137399493,2.9443578550093643,4.7534903867072051,0.47696093690162805,0.32025263433120749,0.23649184169492654,0.19223757684899864,25.674971077826196,0.74002030780899553,307.08917951943130,3111.0000000000000,5860.0000000000000,-9999.,94.422653955563774,81.913333333333327,17.343333333333362,3.5707594779445753,18.546202963148517,0.36429775997731628
20190724063000,420.05070517972348,17.131702063720375,6.82408051852850389E-002,0,-29.317804700948042,0,11.092105115835215,0,5.1120521528477196,0,222.65478548708586,3.0381934833500179,5.0965980420520163,0.54618111807042613,0.39757391294275746,0.29442601462029044,0.24624415026226376,42.695527512694056,0.44501148262779983,108.53422096765890,198.43517114325263,237.47621880859305,297.29204599509580,94.425392602430563,82.393333333333331,17.259999999999991,3.4577282681971431,18.447986287434901,0.42616188462917470
20190724070000,417.87010865117622,17.012397228364687,6.24791740403266224E-002,1,-34.007983493742920,0,11.205021020112092,0,3.8018633155359112,0,220.73048266169681,2.8993368509450836,4.2879172146795659,0.47226524981624768,0.38036489765426601,0.27288117460066413,0.23570126671494612,32.276829489984280,0.58865756953903514,111.36932114078779,203.61863846855582,243.67950532095358,305.05782459981521,94.418533997725078,80.819999999999993,17.453333333333319,3.8130193014498808,18.647892655661224,0.43605150010541444
20190724073000,420.03959724742856,16.890914821134544,5.37147807788019016E-002,1,-31.507212739471804,0,12.106315193553387,0,3.4217438831554889,0,224.50710207292803,2.9476224422571642,4.2150070795952326,0.42841314165171668,0.35363676584469378,0.25423984992873749,0.21852698652852040,27.762019688343159,0.68438824744360383,110.93384410443228,202.82244755782074,242.72666815079972,303.86498553055446,94.409288021701386,80.556666666666672,17.389999999999986,3.8499368679462145,18.573024146186015,0.39867841776271179
20190724080000,420.82893136099602,16.740381363017587,6.25396054000579710E-002,0,-25.522909780538857,0,11.212042966872861,1,1.9706895818989327,1,228.91335190015616,3.0544234081597414,4.7674893803520746,0.48957327536707995,0.45597093973351077,0.27366990078037401,0.23580968006445044,43.059969961264898,0.44124508254631095,111.15335487047994,203.22378324752395,243.20696446880905,304.46625952666767,94.404538551866324,79.650000000000006,17.426666666666677,4.0388091723699242,18.587369533962715,0.39045674126495861
20190724083000,426.32399967316684,16.845603298104979,8.55254561793902385E-002,0,-38.868616858410071,0,17.935155946613264,0,5.9048169625653024,0,227.09747674360605,3.2491022842397141,5.0411087951563651,0.55037991406185438,0.42734579184334692,0.32418463854024271,0.27555760697040105,45.119439019714932,0.42110452640375146,109.94889723908160,201.02165055526876,240.57157406871704,301.16706347255382,94.405184333767366,82.396666666666661,16.990000000000009,3.3984756532319058,18.141260121663379,0.32870072586141352
20190724090000,428.99936336474281,16.656832965543362,9.92063513586707024E-002,0,-30.827299060115820,0,4.2480147616009223,1,3.9146714507536218,0,222.31144972125543,3.2784715547151468,5.4782104822066211,0.59381680763494993,0.45979085724830882,0.34763164999641266,0.29659030423023697,70.936882904640299,0.26784373970225756,110.27701743154520,201.62155891566022,241.28951115737243,302.06583551403622,94.413780004774310,83.170000000000002,16.666666666666686,3.1831837572349628,17.765582833184169,0.29581673679645498
20190724093000,430.42990166249359,16.596958871217886,4.62752895116281468E-002,0,-21.877849411609517,0,-0.96471804856501597,2,1.2669597917051145,1,222.40137410583731,3.0775785091249208,4.4777804537926587,0.42342466022360659,0.37239649246650380,0.26090810563129557,0.20247220584836936,31.801080693968011,0.59746397246191374,102.22501290531676,186.89992658658588,223.67147721683131,280.01014765243974,94.419878039786141,84.133333333333340,16.430000000000007,2.9561470541058701,17.558559492717109,0.35096221342189909
20190724100000,431.16625766487721,16.873565328738099,7.26795717239799022E-002,0,-35.589421140762816,0,-11.183318015853651,1,5.1533715243219582,0,221.19145418414695,3.1719107397319091,5.2217975853098739,0.53906417020858033,0.44456580096296650,0.30688525049145399,0.25362036704758112,38.428035088517859,0.49443069249401000,107.50319915733141,196.55013444643305,235.22031132759017,294.46791752460018,94.434311933779298,87.033333333333331,16.160000000000025,2.3746296511024343,17.329762751033968,0.36368364565156824
20190724103000,428.49143111206638,17.174092835607826,0.10611718927822758,0,-45.311680851055577,0,-2.8269241222189927,0,6.8746981220512957,0,223.47376022472065,3.3364215508819743,5.5149201732663320,0.61506335740897677,0.52012679967750652,0.35770051636155370,0.30650394951212639,53.287787941867350,0.35655448900839076,110.65934778629821,202.32058074216121,242.12606175102852,303.11309758858897,94.461335623697920,87.840000000000003,16.296666666666681,2.2463923693219843,17.467949591742581,0.36249679395704087
20190724110000,428.12747035058862,17.164382135343896,7.41090280283493441E-002,0,-28.422194253826458,0,2.7742845295219491,1,4.0823379439281258,0,222.65432073451251,3.0440522230802487,5.4261741437481525,0.51199873142374808,0.45891695431011953,0.32488910657670894,0.25618273055885799,49.608769678739357,0.38299679921598134,103.53964227972799,189.30348836254385,226.54792678440973,283.61112117912518,94.472480276628673,87.076666666666668,16.426666666666677,2.4072584624908266,17.594933654642716,0.28941460278668252
20190724113000,430.28003258018163,17.149379940486025,7.03414807390553981E-002,1,-30.150745727134165,0,5.2624129015970507,0,4.1694095040643164,0,220.67819100901932,2.9325551017582439,4.5104530902233124,0.48334658124631491,0.42293431829300238,0.31110387342912565,0.24962163070413301,43.262665704148318,0.43917774577118002,104.99203123282057,191.95891858449545,229.72579855374389,287.58943953434914,94.472075588324643,86.539999999999992,16.509999999999991,2.5205570260310424,17.702142328898162,0.31524975990145310
20190724120000,431.65291251883377,17.183113500590888,8.79493640928772913E-002,0,-27.691770933807259,0,20.480530423193393,0,2.5824919842060221,0,221.50208200188271,2.7772017032234131,4.6748492724184745,0.55702561738817891,0.46556961288998133,0.33487391442268938,0.27922700635073772,65.936706011725917,0.28815512859591619,108.27190571929572,197.95557520808720,236.90226496471104,296.57352389039630,94.483177769965280,85.353333333333339,16.759999999999991,2.7867059253538855,17.937476457383923,0.23365365403906641
20190724123000,428.09355081035665,17.165087287399455,8.94577307698151553E-002,0,-11.715381615440794,0,36.991529190627439,0,0.59296278418077530,0,220.20301200724174,2.4409208092558652,4.0864879187952372,0.56834476316482463,0.43998781041161605,0.33273295495820981,0.28188930496842129,160.36321158875805,0.11848103945887772,109.65820315428401,200.49016905613561,239.93552645652358,300.37080733824291,94.488133310546885,82.140000000000001,17.350000000000023,3.5274959254083731,18.525955707126172,0.33700131498999664
20190724130000,420.68315747304416,17.564959509351315,0.12927191927411646,1,14.330633798880086,0,60.126919326725428,0,-7.0678620772108971,0,224.49272799913214,2.1305963996480690,4.2862594203637290,0.57278194238018743,0.52558370310492286,0.42771836548146391,0.33941053146961370,-228.87251237750732,-8.30156483302852272E-002,104.06599285739379,190.26582508942360,227.69959806225526,285.05287695670245,94.494059972656245,79.343333333333334,18.266666666666652,4.3223301953269129,19.457289668613043,0.23520431113224013
20190724133000,412.46642214054941,17.852153221830715,0.13318381342777499,0,5.6861627885076604,2,74.290304665688453,0,-1.7155288561471185,2,234.07316084462514,2.3632858637236431,4.9064013498473438,0.68028628386230217,0.59652719911856700,0.45409663824394986,0.34512075779016943,-606.43363730123986,-3.13307158958960261E-002,100.53404006601001,183.80828892820702,219.97157655502750,275.37831107004570,94.486700972806915,75.826666666666668,19.250000000000000,5.3788860814500072,20.451193387229978,0.26261379481279362
20190724140000,406.12968795359762,17.760452091579580,0.21633891550543399,0,40.931715472450513,0,127.94408716121676,0,-12.048315286168027,0,243.81705654288942,2.3259640229797913,4.8542645580983885,0.81485133299252965,0.59735092541122525,0.48771444832376004,0.44052443810971664,-175.19534037830982,-0.10845037293213483,115.42460773435849,211.03299572892558,252.55259730834911,316.16588284863576,94.481321095573634,71.423333333333332,20.129999999999995,6.7156477306197511,21.298473389574156,0.31725113777211783
20190724143000,401.33336804518348,17.663013786599244,0.19061555187541304,1,55.525022084756174,0,141.44059508803514,0,-14.061129180397007,0,244.62399319015941,2.1146013315255838,4.4820877508205417,0.69396647941296574,0.59772323815744632,0.49971444650619168,0.41409607089213923,-107.26653951634913,-0.17712886129885916,107.73535913719272,196.97459693324740,235.72828451507516,295.10383967704013,94.474313387369804,67.496666666666670,20.956666666666649,8.0378631455181200,22.121058314853258,0.36468285656063876
20190724150000,397.62288268010849,17.312408679530797,0.14065723177518413,1,56.198755636987826,0,210.08128796892723,0,-13.315767058880155,0,242.54145206980922,2.0364218187574603,4.5831179493134337,0.65351392648163620,0.55896823769532444,0.49017631750116969,0.35628696961666217,-67.487409286355984,-0.28153399576180288,97.009215251506035,177.36378498207833,212.25915128078583,265.72326981637121,94.449276721137139,62.566666666666670,21.863333333333344,9.7856143214575653,22.950102343241383,0.30445832204191547
20190724153000,393.77578965419104,17.470170320881198,0.18807559372026539,1,73.570571296630220,0,133.60671072935909,0,-13.391321920264438,0,238.97408711929012,1.7689319577301548,4.3859962925254656,0.76183806274684351,0.64425913354749953,0.51448684779384712,0.41261170270639785,-80.052635301133080,-0.23734384169275524,104.95151482084893,191.88484166136445,229.63714739626624,287.47845880491616,94.414575893663198,60.236666666666665,22.629999999999995,10.891169514999040,23.686581598917655,0.30565552379476707
20190724160000,392.41743232895374,17.370120753710079,0.23199554583720056,1,111.83185620825441,0,217.44860917031880,0,-18.570817974592519,0,267.08009293365194,1.4581609783780309,4.7285578225957483,1.0215641585888007,0.81808903217467077,0.50926155625525349,0.45870095729440713,-72.348796373675896,-0.26261667024654400,115.16642951925139,210.56096360999138,251.98769542067024,315.45869271895839,94.400847305023973,57.979999999999997,23.163333333333355,11.887021447309374,24.128082699363631,0.36894575098211801
20190724163000,394.16109905465493,16.402934621810193,0.17105911830087417,1,92.458076552814632,0,308.94400160142027,0,-19.520220467622664,0,249.13251767137754,2.5455549712022494,6.0896861351322968,0.93717211420359003,0.72183901655659521,0.55672560404218141,0.39398772458756631,-55.440642023831579,-0.34270887396709271,94.957242902092105,173.61212508433505,207.76937257049494,260.10259964761025,94.396836246527783,53.896666666666668,23.423333333333346,13.248475056983679,24.285215134514715,0.33418540989638496
20190724170000,394.37595217706320,16.010640555736952,0.13366656158478532,1,91.831575599009270,0,177.90829497271892,0,-13.633715529245739,0,267.09633472097937,1.8872270041691850,5.3884178355357228,0.90363843206912431,1.2873640178371246,0.50268596068314852,0.34848830197489933,-38.619793626199069,-0.49197569991960532,93.404555565814249,170.77331742939214,204.37204484912007,255.84954848202196,94.377912800564232,51.500000000000000,23.773333333333312,14.234101716435234,24.561252711825944,0.37742828685366298
20190724173000,396.08075295154521,14.873312006503243,0.10437860127906835,0,112.25767549250796,0,245.18329270685416,0,-16.877174047739032,0,272.54470249907860,1.2674969402342842,4.6069406669374420,1.0250416804497116,1.0521614971752336,0.49507861342966869,0.30815015543440044,-21.835598956268157,-0.87013871421859179,85.689079981180285,156.66696733595347,187.49034659935916,234.71566552851064,94.358388731448628,46.556666666666665,24.223333333333358,16.114481768391940,24.862988647650866,0.39406801739658065
20190724180000,395.18332665254769,15.278786176910575,0.15921700060342767,1,90.700582612359796,0,240.99877027552003,1,-14.125872828954201,0,238.24016574981175,2.1364313936708625,5.5076195129391170,0.84881250709055101,1.0001979062482720,0.55619779316029605,0.38084261573965206,-51.014973940062291,-0.37243966883768637,92.484280493896648,169.09076109124643,202.35845464324461,253.32877248557202,94.341315259727850,46.956666666666663,24.526666666666642,16.286989155632099,25.243870465409429,0.39612769894905842
20190724183000,394.93561386824143,15.496661087487443,0.25713796411338302,0,99.595599861402818,0,219.50894889512941,0,-12.035817334112290,0,248.60699532636406,1.7612971558636770,5.8551252838328196,1.0488037984060721,0.97615755289789963,0.53810075639964916,0.48429965817175169,-95.535726353520914,-0.19887847955111890,115.09470597605922,210.42983009798525,251.83076209876518,315.26223082231871,94.332962923828134,46.683333333333330,24.860000000000014,16.700105746366670,25.550151613023559,0.44854875745514472
20190724190000,394.78483479747678,15.456848265949986,0.15108611602187827,0,112.16260131925368,0,200.32072746297246,0,-13.524023793036408,0,261.63773978051381,1.8527837633797537,6.3494491919644540,1.0130725348902214,1.1064149677941009,0.58552459940013335,0.37142154703415692,-38.263120067495322,-0.49656170135849892,86.998639073699451,159.06125901952925,190.35570223397076,238.30275076757556,94.321868218098956,45.796666666666667,25.136666666666656,17.260045783297841,25.865148570590577,0.39915162902636198
20190724193000,394.64003235737380,15.603204135878043,0.37711843256810290,0,147.27938453311273,0,357.33374442522330,0,-20.948156697302419,0,260.33957172833840,2.3428254491962002,6.6743640406922706,1.3919015290603705,1.2510669047272076,0.61740679180020097,0.58716326982544709,-115.11815700846954,-0.16504781255837966,120.28317464821141,219.91600560788936,263.18329138108896,329.47425034365676,94.312012630295172,45.363333333333330,25.453333333333319,17.728684800150607,26.125182123831905,0.42711178122405119
20190724200000,396.52872470351923,14.618883811403695,0.21276061730733886,0,95.803713587092204,0,195.24448858120192,0,-12.313385875543624,0,262.38359642203221,1.5756457151029730,6.9769825860425287,1.1468200797512986,1.1867524092863022,0.57315549585890413,0.44121839466693602,-75.071233122178370,-0.25309295198438414,101.56868250169370,185.69994528291699,222.23540607584098,278.21235699432071,94.298180247737349,41.680000000000000,25.779999999999973,19.294068255643211,26.297633186640496,0.38156446767831453
20190724203000,397.07235645085285,14.515423167832939,0.18138205515729891,0,39.468018816968161,0,156.22644370840203,0,-10.103916463520306,0,268.75459447931922,2.2728609323407691,5.7752364251705233,0.95382607914732964,1.3141013791301281,0.52147885561557827,0.40731343884016979,-143.35055708110755,-0.13254221250950440,102.75631662446143,187.87131923581248,224.83398612081115,281.46547085189763,94.289790569878477,41.676666666666669,25.660000000000025,19.158443050611101,26.228471359252978,0.23741617612586521
20190724210000,394.10207291039279,15.955347040870889,0.14658919533174067,0,29.760085317887835,0,230.34090426750402,0,-11.142607768287387,0,322.81011494216261,1.5711923837137525,4.2804399121993848,0.89096630276372002,0.56266939499698931,0.38580677540045605,0.36615242735973319,-138.11883134251363,-0.13756270463136847,120.08494227351217,219.55357360396593,262.74955283881803,328.93126115802136,94.271471388601455,46.486666666666665,25.409999999999968,17.319550542830289,26.105454741992503,0.32257672921005576
20190724213000,393.80648405835643,16.524761639839525,0.11460860665773803,0,7.8486745848329589,0,178.59383814423148,0,-7.8052188105378848,0,321.46071956182107,1.2732695692861213,3.8029649692011303,0.68957890822379997,0.45057279918613347,0.35888095025716105,0.32377934526527669,-362.13793237836182,-5.24661967201734483E-002,115.31714648934964,210.83652230004316,252.31746879399077,315.87152985002365,94.265366363064246,48.266666666666666,25.366666666666674,16.700404789910628,26.207985871208962,0.32589413303264825
20190724220000,394.79868627359537,15.889574433107553,0.30144708406965015,0,38.209643806072705,0,276.58922611815365,0,-12.241888060053359,0,298.13247192452781,2.0243751122727818,5.8128218618771763,1.0191949350922471,0.91850649533023698,0.53486196397333297,0.52541678527188118,-317.80178230917357,-5.97856936545303683E-002,123.44249253765663,225.69224632255583,270.09597624408121,338.12811150309653,94.246356740885417,45.403333333333336,25.733333333333348,18.012405103376871,26.420888991461936,0.26590256067108475
20190724223000,395.70507688664429,15.472147811710757,0.20364998151231464,0,34.971682958109390,0,204.89876556308295,0,-11.288685995694914,0,297.45758800817316,2.2921648029920019,6.2225834384335510,1.0847288389723713,0.84170775372671780,0.48795864497934016,0.43195701576310680,-192.88465775368573,-9.85044649028698621E-002,113.57975098753151,207.66000920884468,248.51599391658991,311.11253440293700,94.217444181543485,43.953333333333333,25.826666666666654,18.593295680796029,26.450919300703617,0.18603322111581874